星链-3694 (STARLINK-3694 )

导读 | 豆包AI

STARLINK-3694是美国太空探索技术公司Starlink卫星互联网项目的成员,于2022年3月9日发射升空。作为星链星座的组网卫星,它运行在近地轨道,承担着为全球提供高速低延迟互联网接入服务的任务,填补偏远地区网络覆盖空白,也为美军提供太空通信支持,是星链大规模星座组网进程中的一环。

基本信息
目录编号:
51957
目录名称:
STARLINK-3694
国际标识:
2022-025B
轨道中心:
EARTH
卫星名称:
星链-3694
卫星全名:
星链-3694 (STARLINK-3694 )
卫星状态:
在轨 (已飞行1513 天)
发射日期:
2022-03-09 UTC
国别 :
美国 (US)
星等 :
--
轨道信息
数据来源 国际轨道数据
星历时间: 2026-05-01T00:00:03+0800
7小时前
查看轨道信息
半长轴: 6848.859km
偏心率: 0.0001281
轨道倾角: 53.157°
近地点辐角 64.341°
升交点赤经 155.234°
平近点角 254.095°
近地点: 469.844km
远地点: 471.6km
周期: 94.013分钟
每日圈数: 15.317062
详细信息
固有亮度:
5
最大亮度:
2.5
卫星平台:
Starlink v1.5
覆盖范围:
全球
运营商:
太空探索技术公司
运营商所在国:
美国
制造商(研发单位):
太空探索技术公司
制造商所在国:
美国
使用方式:
暂无
卫星简介
星链(Starlink)计划是由太空探索技术公司(SpaceX)提出的一个巨型低轨卫星互联网星座项目,计划在2019年至2024年间在太空搭建由约1.2万颗卫星组成的“星链”网络,其中1584颗将部署在地球上空550千米处的近地轨道,并从2020年开始工作。该卫星仍在工作。
2D轨道图
3D轨道图
轨道高度分析图
轨道倾角分析图
轨道综合分析图
查看轨道综合分析图